Skip Page Navigation
NASA JPL Caltech
NASA Logo - Jet Propulsion Laboratory + View the NASA Portal
+ Center for Near-Earth Object Studies
JPL Home Earth Solar System Stars & Galaxies Technology
JPL Solar System Dynamics
BODIES ORBITS EPHEMERIDES TOOLS PHYSICAL DATA DISCOVERY FAQ SITE MAP
IMPORTANT: The SSD Announcement email list is now available. Major changes are coming in the near future, including possible hostname and/or URL changes. To be notified of such changes, subscribe to this email list.

Please visit this page for more details.


JPL Small-Body Database Browser
Search: [ help ]  
1854 Skvortsov (1968 UE1)
Classification: Main-belt Asteroid          SPK-ID: 2001854
Ephemeris | Orbit Diagram | Orbital Elements | Mission Design | Physical Parameters | Discovery Circumstances | Close-Approach Data ]

[ show orbit diagram ]
Orbital Elements at Epoch 2459000.5 (2020-May-31.0) TDB
Reference: JPL 32 (heliocentric ecliptic J2000)
 Element Value Uncertainty (1-sigma)   Units 
e .1395069329265574 3.7857e-08  
a 2.538338250010819 7.412e-09 au
q 2.184222466021645 9.5769e-08 au
i 4.896230862882989 3.373e-06 deg
node 189.0586427014342 4.6164e-05 deg
peri 275.2249765036732 4.7682e-05 deg
M 224.098900495446 1.3207e-05 deg
tp 2459558.126157507757
(2021-Dec-09.62615751)
5.5081e-05 TDB
period 1477.14343323665
4.04
6.4699e-06
1.771e-08
d
yr
n .2437136380257835 1.0675e-09 deg/d
Q 2.892454033999993 8.446e-09 au
  Orbit Determination Parameters
   # obs. used (total)      2543  
   data-arc span      20964 days (57.40 yr)  
   first obs. used      1962-04-27  
   last obs. used      2019-09-19  
   planetary ephem.      DE431  
   SB-pert. ephem.      SB431-N16  
   condition code      0  
   norm. resid. RMS      .43771  
   source      ORB  
   producer      Otto Matic  
   solution date      2020-Feb-22 16:06:25  

Additional Information
 Earth MOID = 1.20753 au 
 Jupiter MOID = 2.25477 au 
 T_jup = 3.428 
[ show covariance matrix ]

Ephemeris | Orbit Diagram | Orbital Elements | Mission Design | Physical Parameters | Discovery Circumstances | Close-Approach Data ]

Physical Parameter Table
Parameter Symbol Value Units Sigma Reference Notes
absolute magnitude H 12.5   n/a MPO435714  
diameter diameter 9.602 km 0.095 urn:nasa:pds:neowise_diameters_albedos::2.0[mainbelt] (http://adsabs.harvard.edu/abs/2014ApJ...791..121M)  
rotation period rot_per 78.5 h n/a LCDB (Rev. 2019-August); Warner et al., 2009 Result based on less than full coverage, so that the period may be wrong by 30 percent or so.
Published Reference List:
[Warner, B.D. (2006) Minor Planet Bull. 33, 82-84.]
geometric albedo albedo 0.252   0.053 urn:nasa:pds:neowise_diameters_albedos::2.0[mainbelt] (http://adsabs.harvard.edu/abs/2014ApJ...791..121M)  

1854 Skvortsov (1968 UE1)          Discovered 1968-Oct-22 by Smirnova, T. at Nauchnyj
Reference: DISCOVERY.DBLast Updated: 2003-08-29

[ show close-approach data ]
Alternate Designations
 1968 UE1 = 1962 HC = 1964 VC = 1964 XB 
Ephemeris | Orbit Diagram | Orbital Elements | Mission Design | Physical Parameters | Discovery Circumstances | Close-Approach Data ]
ABOUT SSD CREDITS/AWARDS PRIVACY/COPYRIGHT GLOSSARY LINKS
FirstGov 2020-Apr-03 04:40 UT
(server date/time)  
NASA Home Page
Site Manager:   Ryan S. Park
Webmaster  Alan B. Chamberlin